Time,TemperatureF,DewpointF,PressureIn,WindDirection,WindDirectionDegrees,WindSpeedMPH,WindSpeedGustMPH,Humidity,HourlyPrecipIn,Conditions,Clouds,dailyrainin,SoftwareType,DateUTC
2013-04-07 00:01:00,53.5,18.5,29.95,South,175,9.8,11.5,25,0.00,OVC,,0.00,WeatherDisplay:10.37,2013-04-07 04:01:00,
2013-04-07 00:06:00,53.3,20.1,29.94,South,171,5.2,9.2,27,0.00,OVC,,0.00,WeatherDisplay:10.37,2013-04-07 04:06:00,
2013-04-07 00:12:00,53.1,19.1,29.94,SSE,163,4.0,8.1,26,0.00,OVC,,0.00,WeatherDisplay:10.37,2013-04-07 04:12:00,
2013-04-07 00:17:00,53.0,19.0,29.94,SSE,164,4.9,8.1,26,0.00,OVC,,0.00,WeatherDisplay:10.37,2013-04-07 04:17:00,
2013-04-07 00:22:00,52.9,19.8,29.94,South,173,3.8,8.1,27,0.00,OVC,,0.00,WeatherDisplay:10.37,2013-04-07 04:22:00,
2013-04-07 00:27:00,52.7,19.6,29.94,SSE,167,5.2,11.5,27,0.00,OVC,,0.00,WeatherDisplay:10.37,2013-04-07 04:27:00,
2013-04-07 00:32:00,52.6,20.4,29.94,South,175,2.4,4.0,28,0.00,OVC,,0.00,WeatherDisplay:10.37,2013-04-07 04:32:00,
2013-04-07 00:37:00,52.5,20.3,29.94,SSW,192,2.9,6.9,28,0.00,OVC,,0.00,WeatherDisplay:10.37,2013-04-07 04:37:00,
2013-04-07 00:42:00,52.4,20.2,29.94,SSE,159,4.3,6.9,28,0.00,OVC,,0.00,WeatherDisplay:10.37,2013-04-07 04:42:00,
2013-04-07 00:47:00,52.3,20.9,29.94,SSE,165,3.0,8.0,29,0.00,OVC,,0.00,WeatherDisplay:10.37,2013-04-07 04:47:00,
2013-04-07 00:52:00,52.1,20.8,29.94,South,179,7.6,11.5,29,0.00,OVC,,0.00,WeatherDisplay:10.37,2013-04-07 04:52:00,
2013-04-07 00:57:00,52.1,21.6,29.94,South,188,5.0,6.9,30,0.00,OVC,,0.00,WeatherDisplay:10.37,2013-04-07 04:57:00,
2013-04-07 01:02:00,51.9,21.4,29.93,SSE,165,5.8,9.2,30,0.00,SCT,,0.00,WeatherDisplay:10.37,2013-04-07 05:02:00,
2013-04-07 01:07:00,51.8,21.3,29.93,South,171,2.2,5.8,30,0.00,SCT,,0.00,WeatherDisplay:10.37,2013-04-07 05:07:00,
2013-04-07 01:12:00,51.7,21.2,29.93,South,173,4.8,8.1,30,0.00,SCT,,0.00,WeatherDisplay:10.37,2013-04-07 05:12:00,
2013-04-07 01:17:00,51.6,21.1,29.93,South,182,1.8,4.6,30,0.00,SCT,,0.00,WeatherDisplay:10.37,2013-04-07 05:17:00,
2013-04-07 01:23:00,51.4,21.0,29.93,SSW,192,7.3,10.4,30,0.00,SCT,,0.00,WeatherDisplay:10.37,2013-04-07 05:23:00,
2013-04-07 01:28:00,51.5,21.8,29.93,SSW,201,7.2,11.5,31,0.00,SCT,,0.00,WeatherDisplay:10.37,2013-04-07 05:28:00,
2013-04-07 01:33:00,51.5,22.6,29.92,SSE,163,4.2,8.1,32,0.00,SCT,,0.00,WeatherDisplay:10.37,2013-04-07 05:33:00,
2013-04-07 01:38:00,51.5,22.6,29.92,SSE,162,3.9,4.6,32,0.00,SCT,,0.00,WeatherDisplay:10.37,2013-04-07 05:38:00,
2013-04-07 01:43:00,51.4,22.5,29.92,SSE,148,2.3,5.8,32,0.00,SCT,,0.00,WeatherDisplay:10.37,2013-04-07 05:43:00,
2013-04-07 01:48:00,51.4,22.5,29.91,South,183,3.9,6.9,32,0.00,SCT,,0.00,WeatherDisplay:10.37,2013-04-07 05:48:00,
2013-04-07 01:53:00,51.3,23.1,29.91,South,178,2.9,5.8,33,0.00,SCT,,0.00,WeatherDisplay:10.37,2013-04-07 05:53:00,
2013-04-07 01:58:00,51.4,23.2,29.92,SSW,192,3.7,6.9,33,0.00,SCT,,0.00,WeatherDisplay:10.37,2013-04-07 05:58:00,
2013-04-07 02:03:00,51.4,22.5,29.91,SSE,154,6.4,11.5,32,0.00,BKN,,0.00,WeatherDisplay:10.37,2013-04-07 06:03:00,
2013-04-07 02:08:00,51.4,22.5,29.91,South,181,7.7,21.9,32,0.00,BKN,,0.00,WeatherDisplay:10.37,2013-04-07 06:08:00,
2013-04-07 02:13:00,51.7,23.5,29.90,SE,145,2.1,11.5,33,0.00,BKN,,0.00,WeatherDisplay:10.37,2013-04-07 06:13:00,
2013-04-07 02:18:00,51.9,23.7,29.90,South,186,10.5,18.4,33,0.00,BKN,,0.00,WeatherDisplay:10.37,2013-04-07 06:18:00,
2013-04-07 02:23:00,52.1,23.8,29.90,SSW,203,5.9,13.8,33,0.00,BKN,,0.00,WeatherDisplay:10.37,2013-04-07 06:23:00,
2013-04-07 02:28:00,52.3,24.7,29.89,South,181,4.8,10.4,34,0.00,BKN,,0.00,WeatherDisplay:10.37,2013-04-07 06:28:00,
2013-04-07 02:33:00,52.4,24.8,29.89,SSE,161,5.9,8.1,34,0.00,BKN,,0.00,WeatherDisplay:10.37,2013-04-07 06:33:00,
2013-04-07 02:38:00,52.5,24.9,29.89,SSE,167,10.3,15.0,34,0.00,BKN,,0.00,WeatherDisplay:10.37,2013-04-07 06:38:00,
2013-04-07 02:43:00,52.8,25.2,29.89,South,190,11.1,19.6,34,0.00,BKN,,0.00,WeatherDisplay:10.37,2013-04-07 06:43:00,
2013-04-07 02:48:00,53.0,26.0,29.88,South,172,6.0,15.0,35,0.00,BKN,,0.00,WeatherDisplay:10.37,2013-04-07 06:48:00,
2013-04-07 02:53:00,53.3,26.3,29.88,SSE,157,6.8,10.4,35,0.00,BKN,,0.00,WeatherDisplay:10.37,2013-04-07 06:53:00,
2013-04-07 02:58:00,53.5,26.5,29.88,SSW,195,7.6,11.5,35,0.00,BKN,,0.00,WeatherDisplay:10.37,2013-04-07 06:58:00,
2013-04-07 03:03:00,53.6,26.6,29.88,South,189,9.3,14.0,35,0.00,OVC,,0.00,WeatherDisplay:10.37,2013-04-07 07:03:00,
2013-04-07 03:08:00,53.7,27.4,29.88,South,185,8.3,11.5,36,0.00,OVC,,0.00,WeatherDisplay:10.37,2013-04-07 07:08:00,
2013-04-07 03:13:00,53.8,27.4,29.88,SSE,166,8.3,13.8,36,0.00,OVC,,0.00,WeatherDisplay:10.37,2013-04-07 07:13:00,
2013-04-07 03:18:00,53.8,27.4,29.88,South,188,7.5,11.5,36,0.00,OVC,,0.00,WeatherDisplay:10.37,2013-04-07 07:18:00,
2013-04-07 03:23:00,53.9,27.5,29.87,South,175,3.8,8.1,36,0.00,OVC,,0.00,WeatherDisplay:10.37,2013-04-07 07:23:00,
2013-04-07 03:28:00,54.0,28.3,29.87,SSE,167,10.3,15.0,37,0.00,OVC,,0.00,WeatherDisplay:10.37,2013-04-07 07:28:00,
2013-04-07 03:33:00,54.4,28.6,29.87,South,171,7.4,15.0,37,0.00,OVC,,0.00,WeatherDisplay:10.37,2013-04-07 07:33:00,
2013-04-07 03:38:00,54.7,28.9,29.87,South,180,6.0,9.2,37,0.00,OVC,,0.00,WeatherDisplay:10.37,2013-04-07 07:38:00,
2013-04-07 03:43:00,54.8,29.0,29.87,SSW,209,12.7,19.6,37,0.00,OVC,,0.00,WeatherDisplay:10.37,2013-04-07 07:43:00,
2013-04-07 03:48:00,55.1,29.9,29.86,SW,218,4.6,11.5,38,0.00,OVC,,0.00,WeatherDisplay:10.37,2013-04-07 07:48:00,
2013-04-07 03:53:00,55.3,30.1,29.86,SW,215,6.3,10.4,38,0.00,OVC,,0.00,WeatherDisplay:10.37,2013-04-07 07:53:00,
2013-04-07 03:58:00,55.6,30.4,29.85,South,180,7.5,17.3,38,0.00,OVC,,0.00,WeatherDisplay:10.37,2013-04-07 07:58:00,
2013-04-07 04:03:00,56.1,31.5,29.85,SSW,207,6.4,11.5,39,0.00,OVC,,0.00,WeatherDisplay:10.37,2013-04-07 08:03:00,
2013-04-07 04:08:00,56.3,31.0,29.85,SSW,211,9.4,19.6,38,0.00,OVC,,0.00,WeatherDisplay:10.37,2013-04-07 08:08:00,
2013-04-07 04:13:00,56.4,31.1,29.85,SW,226,6.3,12.0,38,0.00,OVC,,0.00,WeatherDisplay:10.37,2013-04-07 08:13:00,
2013-04-07 04:18:00,56.5,31.2,29.85,SSW,209,7.5,11.5,38,0.00,OVC,,0.00,WeatherDisplay:10.37,2013-04-07 08:18:00,
2013-04-07 04:23:00,56.7,32.0,29.85,SSW,209,5.3,11.5,39,0.00,OVC,,0.00,WeatherDisplay:10.37,2013-04-07 08:23:00,
2013-04-07 04:28:00,56.8,32.1,29.85,SSW,207,8.8,11.5,39,0.00,OVC,,0.00,WeatherDisplay:10.37,2013-04-07 08:28:00,
2013-04-07 04:33:00,56.7,32.0,29.85,SW,219,7.6,11.5,39,0.00,OVC,,0.00,WeatherDisplay:10.37,2013-04-07 08:33:00,
2013-04-07 04:38:00,56.6,31.9,29.85,SSW,203,8.1,11.5,39,0.00,OVC,,0.00,WeatherDisplay:10.37,2013-04-07 08:38:00,
2013-04-07 04:43:00,56.3,31.6,29.85,SE,130,9.6,16.1,39,0.00,OVC,,0.00,WeatherDisplay:10.37,2013-04-07 08:43:00,
2013-04-07 04:49:00,56.0,32.0,29.85,SSW,196,11.3,15.0,40,0.00,OVC,,0.00,WeatherDisplay:10.37,2013-04-07 08:49:00,
2013-04-07 04:54:00,55.7,31.7,29.84,SSW,196,8.7,15.0,40,0.00,OVC,,0.00,WeatherDisplay:10.37,2013-04-07 08:54:00,
2013-04-07 04:59:00,55.4,32.1,29.84,South,171,6.4,12.7,41,0.00,OVC,,0.00,WeatherDisplay:10.37,2013-04-07 08:59:00,
2013-04-07 05:04:00,55.1,31.8,29.84,SW,227,5.8,10.4,41,0.00,CLR,,0.00,WeatherDisplay:10.37,2013-04-07 09:04:00,
2013-04-07 05:09:00,55.0,32.3,29.84,SSW,211,7.2,11.5,42,0.00,CLR,,0.00,WeatherDisplay:10.37,2013-04-07 09:09:00,
2013-04-07 05:14:00,54.9,32.8,29.84,South,179,8.6,13.0,43,0.00,CLR,,0.00,WeatherDisplay:10.37,2013-04-07 09:14:00,
2013-04-07 05:19:00,54.8,32.7,29.83,SW,224,7.0,11.5,43,0.00,CLR,,0.00,WeatherDisplay:10.37,2013-04-07 09:19:00,
2013-04-07 05:24:00,54.8,33.3,29.83,South,178,4.6,10.0,44,0.00,CLR,,0.00,WeatherDisplay:10.37,2013-04-07 09:24:00,
2013-04-07 05:29:00,54.8,33.3,29.83,South,188,9.4,19.6,44,0.00,CLR,,0.00,WeatherDisplay:10.37,2013-04-07 09:29:00,
2013-04-07 05:34:00,54.8,33.3,29.83,SSE,164,4.8,10.4,44,0.00,CLR,,0.00,WeatherDisplay:10.37,2013-04-07 09:34:00,
2013-04-07 05:39:00,54.9,33.9,29.83,South,170,7.9,15.0,45,0.00,CLR,,0.00,WeatherDisplay:10.37,2013-04-07 09:39:00,
2013-04-07 05:45:00,54.8,33.8,29.83,SSW,200,7.0,11.5,45,0.00,CLR,,0.00,WeatherDisplay:10.37,2013-04-07 09:45:00,
2013-04-07 05:50:00,54.8,33.8,29.82,South,178,9.0,13.8,45,0.00,CLR,,0.00,WeatherDisplay:10.37,2013-04-07 09:50:00,
2013-04-07 05:55:00,54.8,34.4,29.82,South,177,10.6,16.1,46,0.00,CLR,,0.00,WeatherDisplay:10.37,2013-04-07 09:55:00,
2013-04-07 06:00:00,54.9,34.5,29.82,SSW,201,7.2,9.2,46,0.00,CLR,,0.00,WeatherDisplay:10.37,2013-04-07 10:00:00,
2013-04-07 06:05:00,54.9,34.5,29.82,South,191,9.7,15.0,46,0.00,CLR,,0.00,WeatherDisplay:10.37,2013-04-07 10:05:00,
2013-04-07 06:10:00,54.9,35.0,29.82,SSE,164,7.2,15.0,47,0.00,CLR,,0.00,WeatherDisplay:10.37,2013-04-07 10:10:00,
2013-04-07 06:15:00,54.9,35.0,29.82,South,189,6.2,9.2,47,0.00,CLR,,0.00,WeatherDisplay:10.37,2013-04-07 10:15:00,
2013-04-07 06:20:00,54.8,34.9,29.81,SSW,192,7.0,11.5,47,0.00,CLR,,0.00,WeatherDisplay:10.37,2013-04-07 10:20:00,
2013-04-07 06:25:00,54.7,35.4,29.82,SSW,192,6.4,9.2,48,0.00,CLR,,0.00,WeatherDisplay:10.37,2013-04-07 10:25:00,
2013-04-07 06:30:00,54.7,35.9,29.81,SSW,192,5.1,11.5,49,0.00,CLR,,0.00,WeatherDisplay:10.37,2013-04-07 10:30:00,
2013-04-07 06:35:00,54.8,36.0,29.81,SSW,197,8.3,11.5,49,0.00,CLR,,0.00,WeatherDisplay:10.37,2013-04-07 10:35:00,
2013-04-07 06:40:00,54.8,36.0,29.82,South,175,6.5,13.8,49,0.00,CLR,,0.00,WeatherDisplay:10.37,2013-04-07 10:40:00,
2013-04-07 06:45:00,54.8,36.0,29.81,SSW,202,7.5,11.5,49,0.00,CLR,,0.00,WeatherDisplay:10.37,2013-04-07 10:45:00,
2013-04-07 06:50:00,54.8,36.0,29.82,SSW,209,5.4,11.5,49,0.00,CLR,,0.00,WeatherDisplay:10.37,2013-04-07 10:50:00,
2013-04-07 06:55:00,54.8,36.5,29.82,SW,221,8.4,11.5,50,0.00,CLR,,0.00,WeatherDisplay:10.37,2013-04-07 10:55:00,
2013-04-07 07:00:00,54.8,36.5,29.81,South,191,6.4,11.5,50,0.00,CLR,,0.00,WeatherDisplay:10.37,2013-04-07 11:00:00,
2013-04-07 07:05:00,54.9,36.6,29.82,SSW,198,5.3,11.5,50,0.00,CLR,,0.00,WeatherDisplay:10.37,2013-04-07 11:05:00,
2013-04-07 07:10:00,55.0,36.7,29.81,South,182,8.1,13.8,50,0.00,CLR,,0.00,WeatherDisplay:10.37,2013-04-07 11:10:00,
2013-04-07 07:15:00,55.0,36.7,29.81,SSW,201,13.6,19.6,50,0.00,CLR,,0.00,WeatherDisplay:10.37,2013-04-07 11:15:00,
2013-04-07 07:20:00,55.1,36.8,29.81,South,187,7.0,16.0,50,0.00,CLR,CLR,0.00,WeatherDisplay:10.37,2013-04-07 11:20:00,
2013-04-07 07:25:00,55.2,37.4,29.81,South,191,8.0,14.0,51,0.00,CLR,CLR,0.00,WeatherDisplay:10.37,2013-04-07 11:25:00,
2013-04-07 07:30:00,55.3,37.0,29.81,SSW,193,7.0,14.0,50,0.00,CLR,CLR,0.00,WeatherDisplay:10.37,2013-04-07 11:30:00,
2013-04-07 07:35:00,55.4,37.1,29.81,SSW,193,5.0,15.0,50,0.00,CLR,CLR,0.00,WeatherDisplay:10.37,2013-04-07 11:35:00,
2013-04-07 07:40:00,55.4,37.1,29.81,SSW,211,7.3,11.5,50,0.00,CLR,,0.00,WeatherDisplay:10.37,2013-04-07 11:40:00,
2013-04-07 07:45:00,55.5,37.1,29.81,SSW,194,11.2,11.5,50,0.00,CLR,,0.00,WeatherDisplay:10.37,2013-04-07 11:45:00,
2013-04-07 07:50:00,55.7,37.3,29.81,South,186,5.0,8.0,50,0.00,CLR,,0.00,WeatherDisplay:10.37,2013-04-07 11:50:00,
2013-04-07 07:55:00,55.9,37.5,29.81,South,190,10.0,17.0,50,0.00,CLR,CLR,0.00,WeatherDisplay:10.37,2013-04-07 11:55:00,
2013-04-07 08:00:00,56.1,37.7,29.81,SSW,197,7.0,12.0,50,0.00,CLR,CLR,0.00,WeatherDisplay:10.37,2013-04-07 12:00:00,
2013-04-07 08:05:00,56.4,38.0,29.81,SW,221,5.9,9.2,50,0.00,FEW,,0.00,WeatherDisplay:10.37,2013-04-07 12:05:00,
2013-04-07 08:10:00,56.5,38.1,29.81,South,185,5.8,7.0,50,0.00,FEW,,0.00,WeatherDisplay:10.37,2013-04-07 12:10:00,
2013-04-07 08:15:00,56.6,37.6,29.81,SW,219,9.0,16.1,49,0.00,FEW,,0.00,WeatherDisplay:10.37,2013-04-07 12:15:00,
2013-04-07 08:20:00,56.7,37.7,29.81,SW,223,7.6,11.5,49,0.00,FEW,,0.00,WeatherDisplay:10.37,2013-04-07 12:20:00,
2013-04-07 08:25:00,56.8,38.9,29.81,SSW,202,8.0,17.0,51,0.00,FEW,FEW,0.00,WeatherDisplay:10.37,2013-04-07 12:25:00,
2013-04-07 08:30:00,57.1,38.1,29.81,SW,214,10.3,19.6,49,0.00,FEW,,0.00,WeatherDisplay:10.37,2013-04-07 12:30:00,
2013-04-07 08:35:00,57.3,38.3,29.81,SSW,211,8.3,13.8,49,0.00,FEW,,0.00,WeatherDisplay:10.37,2013-04-07 12:35:00,
2013-04-07 08:40:00,57.4,38.4,29.81,SW,232,8.9,13.8,49,0.00,FEW,,0.00,WeatherDisplay:10.37,2013-04-07 12:40:00,
2013-04-07 08:45:00,57.5,38.5,29.80,WSW,255,7.3,11.0,49,0.00,FEW,,0.00,WeatherDisplay:10.37,2013-04-07 12:45:00,
2013-04-07 08:50:00,57.8,38.8,29.81,SW,231,4.6,9.2,49,0.00,FEW,,0.00,WeatherDisplay:10.37,2013-04-07 12:50:00,
2013-04-07 08:55:00,58.1,39.0,29.80,South,170,5.7,10.4,49,0.00,FEW,,0.00,WeatherDisplay:10.37,2013-04-07 12:55:00,
2013-04-07 09:00:00,58.4,38.8,29.80,SW,220,9.7,15.0,48,0.00,FEW,,0.00,WeatherDisplay:10.37,2013-04-07 13:00:00,
2013-04-07 09:05:00,58.6,39.0,29.80,SSW,196,11.0,17.3,48,0.00,OVC,,0.00,WeatherDisplay:10.37,2013-04-07 13:05:00,
2013-04-07 09:10:00,58.8,39.7,29.80,SW,225,8.4,11.5,49,0.00,OVC,,0.00,WeatherDisplay:10.37,2013-04-07 13:10:00,
2013-04-07 09:15:00,59.2,40.0,29.79,SSW,198,7.1,11.5,49,0.00,OVC,,0.00,WeatherDisplay:10.37,2013-04-07 13:15:00,
2013-04-07 09:20:00,59.7,40.0,29.80,SSW,207,5.6,12.0,48,0.00,OVC,,0.00,WeatherDisplay:10.37,2013-04-07 13:20:00,
2013-04-07 09:25:00,60.3,40.5,29.79,SSW,213,8.9,16.1,48,0.00,OVC,,0.00,WeatherDisplay:10.37,2013-04-07 13:25:00,
2013-04-07 09:30:00,60.9,40.5,29.80,SW,217,9.6,13.8,47,0.00,OVC,,0.00,WeatherDisplay:10.37,2013-04-07 13:30:00,
2013-04-07 09:35:00,61.3,40.9,29.80,WSW,250,4.9,11.5,47,0.00,OVC,,0.00,WeatherDisplay:10.37,2013-04-07 13:35:00,
2013-04-07 09:40:00,61.6,40.6,29.80,SW,234,9.6,13.8,46,0.00,OVC,,0.00,WeatherDisplay:10.37,2013-04-07 13:40:00,
2013-04-07 09:45:00,61.9,41.4,29.79,SSW,198,6.1,17.0,47,0.00,OVC,,0.00,WeatherDisplay:10.37,2013-04-07 13:45:00,
2013-04-07 09:50:00,62.1,41.1,29.79,SW,217,8.4,13.8,46,0.00,OVC,,0.00,WeatherDisplay:10.37,2013-04-07 13:50:00,
2013-04-07 09:55:00,62.3,41.2,29.79,SW,236,13.4,17.3,46,0.00,OVC,,0.00,WeatherDisplay:10.37,2013-04-07 13:55:00,
2013-04-07 10:00:00,62.1,41.1,29.79,West,275,9.7,25.3,46,0.00,OVC,,0.00,WeatherDisplay:10.37,2013-04-07 14:00:00,
2013-04-07 10:06:00,61.9,41.4,29.79,WSW,244,9.5,11.5,47,0.00,OVC,,0.00,WeatherDisplay:10.37,2013-04-07 14:06:00,
2013-04-07 10:11:00,61.8,41.3,29.79,WSW,243,12.0,21.9,47,0.00,OVC,,0.00,WeatherDisplay:10.37,2013-04-07 14:11:00,
2013-04-07 10:16:00,61.9,41.4,29.79,West,263,13.1,19.6,47,0.00,OVC,,0.00,WeatherDisplay:10.37,2013-04-07 14:16:00,
2013-04-07 10:21:00,62.1,41.6,29.79,SW,227,10.4,17.3,47,0.00,OVC,,0.00,WeatherDisplay:10.37,2013-04-07 14:21:00,
2013-04-07 10:26:00,62.2,41.7,29.79,WNW,290,10.1,15.0,47,0.00,OVC,,0.00,WeatherDisplay:10.37,2013-04-07 14:26:00,
2013-04-07 10:31:00,62.4,41.9,29.79,WSW,256,8.7,12.0,47,0.00,OVC,,0.00,WeatherDisplay:10.37,2013-04-07 14:31:00,
2013-04-07 10:36:00,62.9,42.4,29.80,SW,220,10.5,15.0,47,0.00,OVC,,0.00,WeatherDisplay:10.37,2013-04-07 14:36:00,
2013-04-07 10:41:00,63.5,42.9,29.80,WSW,254,14.3,19.6,47,0.00,OVC,,0.00,WeatherDisplay:10.37,2013-04-07 14:41:00,
2013-04-07 10:46:00,63.9,43.3,29.80,WSW,245,10.1,12.7,47,0.00,OVC,,0.00,WeatherDisplay:10.37,2013-04-07 14:46:00,
2013-04-07 10:52:00,64.3,44.2,29.80,SW,229,5.6,10.4,48,0.00,OVC,,0.00,WeatherDisplay:10.37,2013-04-07 14:52:00,
2013-04-07 10:57:00,64.5,43.8,29.80,SW,236,7.5,17.3,47,0.00,OVC,,0.00,WeatherDisplay:10.37,2013-04-07 14:57:00,
2013-04-07 11:02:00,64.4,43.7,29.81,West,281,13.4,16.1,47,0.00,OVC,,0.00,WeatherDisplay:10.37,2013-04-07 15:02:00,
2013-04-07 11:07:00,64.2,44.1,29.80,SSW,209,13.1,25.3,48,0.00,OVC,,0.00,WeatherDisplay:10.37,2013-04-07 15:07:00,
2013-04-07 11:12:00,63.9,43.8,29.81,WSW,240,9.6,26.5,48,0.00,OVC,,0.00,WeatherDisplay:10.37,2013-04-07 15:12:00,
2013-04-07 11:17:00,63.8,43.7,29.81,WSW,243,13.3,20.7,48,0.00,OVC,,0.00,WeatherDisplay:10.37,2013-04-07 15:17:00,
2013-04-07 11:22:00,64.0,44.4,29.81,SW,226,10.8,10.8,49,0.00,OVC,,0.00,WeatherDisplay:10.37,2013-04-07 15:22:00,
2013-04-07 11:27:00,64.7,44.5,29.81,West,271,12.3,23.0,48,0.00,OVC,,0.00,WeatherDisplay:10.37,2013-04-07 15:27:00,
2013-04-07 11:32:00,65.1,44.4,29.81,West,259,10.1,13.0,47,0.00,OVC,,0.00,WeatherDisplay:10.37,2013-04-07 15:32:00,
2013-04-07 11:37:00,65.2,43.9,29.81,SW,222,14.1,19.6,46,0.00,OVC,,0.00,WeatherDisplay:10.37,2013-04-07 15:37:00,
2013-04-07 11:43:00,64.8,43.5,29.81,West,271,9.0,18.4,46,0.00,OVC,,0.00,WeatherDisplay:10.37,2013-04-07 15:43:00,
2013-04-07 11:48:00,64.8,44.6,29.81,WSW,244,8.4,13.8,48,0.00,OVC,,0.00,WeatherDisplay:10.37,2013-04-07 15:48:00,
2013-04-07 11:53:00,64.9,44.7,29.81,SSW,208,12.0,21.0,48,0.00,OVC,,0.00,WeatherDisplay:10.37,2013-04-07 15:53:00,
2013-04-07 11:58:00,64.9,44.2,29.81,WSW,254,12.7,18.4,47,0.00,OVC,,0.00,WeatherDisplay:10.37,2013-04-07 15:58:00,
2013-04-07 12:03:00,65.3,45.1,29.81,SSW,213,10.3,12.0,48,0.00,BKN,,0.00,WeatherDisplay:10.37,2013-04-07 16:03:00,
2013-04-07 12:08:00,65.6,44.8,29.81,SW,217,10.2,18.4,47,0.00,BKN,,0.00,WeatherDisplay:10.37,2013-04-07 16:08:00,
2013-04-07 12:13:00,65.6,44.3,29.81,West,271,11.5,23.0,46,0.00,BKN,,0.00,WeatherDisplay:10.37,2013-04-07 16:13:00,
2013-04-07 12:18:00,66.1,45.8,29.81,SW,217,9.8,12.7,48,0.00,BKN,,0.00,WeatherDisplay:10.37,2013-04-07 16:18:00,
2013-04-07 12:23:00,66.7,46.4,29.80,South,190,7.3,12.0,48,0.00,BKN,,0.00,WeatherDisplay:10.37,2013-04-07 16:23:00,
2013-04-07 12:28:00,67.0,46.7,29.80,SW,229,6.5,10.0,48,0.00,BKN,,0.00,WeatherDisplay:10.37,2013-04-07 16:28:00,
2013-04-07 12:33:00,67.1,45.6,29.80,WSW,241,6.7,13.8,46,0.00,BKN,,0.00,WeatherDisplay:10.37,2013-04-07 16:33:00,
2013-04-07 12:38:00,67.4,45.3,29.80,SW,221,11.9,13.8,45,0.00,BKN,,0.00,WeatherDisplay:10.37,2013-04-07 16:38:00,
2013-04-07 12:43:00,67.5,45.4,29.80,West,261,8.2,18.4,45,0.00,BKN,,0.00,WeatherDisplay:10.37,2013-04-07 16:43:00,
2013-04-07 12:48:00,67.6,46.1,29.80,West,259,10.1,19.6,46,0.00,BKN,,0.00,WeatherDisplay:10.37,2013-04-07 16:48:00,
2013-04-07 12:53:00,68.0,47.6,29.80,WSW,248,8.2,14.0,48,0.00,BKN,,0.00,WeatherDisplay:10.37,2013-04-07 16:53:00,
2013-04-07 12:58:00,68.1,47.1,29.80,SSW,213,7.5,11.5,47,0.00,BKN,,0.00,WeatherDisplay:10.37,2013-04-07 16:58:00,
2013-04-07 13:03:00,68.1,47.1,29.80,SW,216,4.7,11.5,47,0.00,BKN,,0.00,WeatherDisplay:10.37,2013-04-07 17:03:00,
2013-04-07 13:08:00,68.4,46.2,29.81,SW,225,9.2,11.5,45,0.00,BKN,,0.00,WeatherDisplay:10.37,2013-04-07 17:08:00,
2013-04-07 13:13:00,68.2,44.2,29.80,WSW,246,11.0,17.3,42,0.00,BKN,,0.00,WeatherDisplay:10.37,2013-04-07 17:13:00,
2013-04-07 13:19:00,68.1,44.7,29.80,WSW,254,5.1,11.5,43,0.00,BKN,,0.00,WeatherDisplay:10.37,2013-04-07 17:19:00,
2013-04-07 13:24:00,68.2,44.8,29.80,WSW,242,10.1,16.1,43,0.00,BKN,,0.00,WeatherDisplay:10.37,2013-04-07 17:24:00,
2013-04-07 13:29:00,68.4,45.0,29.80,West,275,14.1,21.9,43,0.00,BKN,,0.00,WeatherDisplay:10.37,2013-04-07 17:29:00,
2013-04-07 13:34:00,69.0,45.6,29.80,NW,306,13.0,18.4,43,0.00,BKN,,0.00,WeatherDisplay:10.37,2013-04-07 17:34:00,
2013-04-07 13:39:00,68.8,44.8,29.80,West,263,13.1,23.0,42,0.00,BKN,,0.00,WeatherDisplay:10.37,2013-04-07 17:39:00,
2013-04-07 13:44:00,68.6,44.6,29.80,WNW,290,12.3,19.6,42,0.00,BKN,,0.00,WeatherDisplay:10.37,2013-04-07 17:44:00,
2013-04-07 13:49:00,68.5,44.5,29.81,WSW,250,12.7,25.3,42,0.00,BKN,,0.00,WeatherDisplay:10.37,2013-04-07 17:49:00,
2013-04-07 13:54:00,68.3,44.3,29.81,WSW,242,9.5,15.0,42,0.00,BKN,,0.00,WeatherDisplay:10.37,2013-04-07 17:54:00,
2013-04-07 13:59:00,68.3,44.3,29.80,West,264,6.2,12.7,42,0.00,BKN,,0.00,WeatherDisplay:10.37,2013-04-07 17:59:00,
2013-04-07 14:04:00,68.5,44.5,29.80,West,264,13.0,21.9,42,0.00,BKN,,0.00,WeatherDisplay:10.37,2013-04-07 18:04:00,
2013-04-07 14:09:00,68.5,44.5,29.81,WSW,252,11.8,15.0,42,0.00,BKN,,0.00,WeatherDisplay:10.37,2013-04-07 18:09:00,
2013-04-07 14:14:00,68.5,44.5,29.81,WSW,243,10.4,12.7,42,0.00,BKN,,0.00,WeatherDisplay:10.37,2013-04-07 18:14:00,
2013-04-07 14:20:00,68.6,43.9,29.81,SW,228,13.5,19.6,41,0.00,BKN,,0.00,WeatherDisplay:10.37,2013-04-07 18:20:00,
2013-04-07 14:25:00,68.7,44.0,29.80,West,274,10.5,19.6,41,0.00,BKN,,0.00,WeatherDisplay:10.37,2013-04-07 18:25:00,
2013-04-07 14:30:00,68.9,44.2,29.80,West,264,8.7,19.6,41,0.00,BKN,,0.00,WeatherDisplay:10.37,2013-04-07 18:30:00,
2013-04-07 14:35:00,69.1,45.0,29.80,WSW,257,7.9,15.0,42,0.00,BKN,,0.00,WeatherDisplay:10.37,2013-04-07 18:35:00,
2013-04-07 14:40:00,69.3,43.9,29.81,WSW,255,7.0,14.0,40,0.00,BKN,BKN,0.00,WeatherDisplay:10.37,2013-04-07 18:40:00,
2013-04-07 14:45:00,70.0,43.9,29.80,WNW,299,12.6,23.0,39,0.00,BKN,,0.00,WeatherDisplay:10.37,2013-04-07 18:45:00,
2013-04-07 14:50:00,69.7,43.6,29.81,WNW,282,8.9,21.9,39,0.00,BKN,,0.00,WeatherDisplay:10.37,2013-04-07 18:50:00,
2013-04-07 14:55:00,69.5,44.8,29.80,West,273,12.0,19.6,41,0.00,BKN,,0.00,WeatherDisplay:10.37,2013-04-07 18:55:00,
2013-04-07 15:00:00,69.5,44.1,29.81,West,261,9.0,20.0,40,0.00,BKN,BKN,0.00,WeatherDisplay:10.37,2013-04-07 19:00:00,
2013-04-07 15:05:00,69.6,45.5,29.80,WSW,252,7.0,14.0,42,0.00,BKN,BKN,0.00,WeatherDisplay:10.37,2013-04-07 19:05:00,
2013-04-07 15:10:00,69.9,44.5,29.81,West,259,8.8,12.7,40,0.00,BKN,,0.00,WeatherDisplay:10.37,2013-04-07 19:10:00,
2013-04-07 15:15:00,69.8,45.0,29.81,WSW,242,7.0,14.0,41,0.00,BKN,BKN,0.00,WeatherDisplay:10.37,2013-04-07 19:15:00,
2013-04-07 15:20:00,69.5,44.1,29.80,West,261,8.1,13.8,40,0.00,BKN,,0.00,WeatherDisplay:10.37,2013-04-07 19:20:00,
2013-04-07 15:25:00,69.3,43.9,29.80,NW,321,13.6,24.2,40,0.00,BKN,,0.00,WeatherDisplay:10.37,2013-04-07 19:25:00,
2013-04-07 15:30:00,69.2,44.5,29.81,West,261,8.2,23.0,41,0.00,BKN,,0.00,WeatherDisplay:10.37,2013-04-07 19:30:00,
2013-04-07 15:35:00,69.0,44.3,29.81,West,276,12.2,24.2,41,0.00,BKN,,0.00,WeatherDisplay:10.37,2013-04-07 19:35:00,
2013-04-07 15:40:00,68.7,46.5,29.81,WNW,292,5.0,13.0,45,0.00,BKN,BKN,0.00,WeatherDisplay:10.37,2013-04-07 19:40:00,
2013-04-07 15:45:00,67.9,47.5,29.81,NE,44,7.0,13.8,48,0.00,BKN,,0.00,WeatherDisplay:10.37,2013-04-07 19:45:00,
2013-04-07 15:50:00,67.1,47.8,29.82,NW,324,3.2,4.6,50,0.00,BKN,,0.00,WeatherDisplay:10.37,2013-04-07 19:50:00,
2013-04-07 15:55:00,66.6,47.9,29.82,North,349,3.6,5.8,51,0.00,BKN,,0.00,WeatherDisplay:10.37,2013-04-07 19:55:00,
2013-04-07 16:00:00,66.2,48.6,29.82,NNW,338,3.1,4.6,53,0.00,BKN,,0.00,WeatherDisplay:10.37,2013-04-07 20:00:00,
2013-04-07 16:05:00,65.9,47.8,29.82,NNW,336,4.8,6.9,52,0.00,BKN,,0.00,WeatherDisplay:10.37,2013-04-07 20:05:00,
2013-04-07 16:10:00,65.5,47.9,29.82,WNW,303,5.2,6.9,53,0.00,BKN,,0.00,WeatherDisplay:10.37,2013-04-07 20:10:00,
2013-04-07 16:15:00,65.3,48.2,29.82,NW,314,4.5,6.9,54,0.00,BKN,,0.00,WeatherDisplay:10.37,2013-04-07 20:15:00,
2013-04-07 16:20:00,65.0,47.9,29.83,North,5,3.3,5.8,54,0.00,BKN,,0.00,WeatherDisplay:10.37,2013-04-07 20:20:00,
2013-04-07 16:25:00,64.9,47.9,29.83,NNW,340,4.3,6.9,54,0.00,BKN,,0.00,WeatherDisplay:10.37,2013-04-07 20:25:00,
2013-04-07 16:31:00,65.1,48.5,29.83,NNW,339,4.7,9.2,55,0.00,BKN,,0.00,WeatherDisplay:10.37,2013-04-07 20:31:00,
2013-04-07 16:36:00,65.0,47.9,29.83,NNW,329,5.0,8.1,54,0.00,BKN,,0.00,WeatherDisplay:10.37,2013-04-07 20:36:00,
2013-04-07 16:41:00,65.0,48.4,29.84,NNW,334,3.4,6.9,55,0.00,BKN,,0.00,WeatherDisplay:10.37,2013-04-07 20:41:00,
2013-04-07 16:46:00,65.2,49.1,29.84,NNW,331,6.2,6.9,56,0.00,BKN,,0.00,WeatherDisplay:10.37,2013-04-07 20:46:00,
2013-04-07 16:51:00,65.3,48.7,29.84,NNW,329,4.5,4.6,55,0.00,BKN,,0.00,WeatherDisplay:10.37,2013-04-07 20:51:00,
2013-04-07 16:57:00,65.3,48.2,29.84,WNW,302,5.8,6.0,54,0.00,BKN,,0.00,WeatherDisplay:10.37,2013-04-07 20:57:00,
2013-04-07 17:02:00,65.3,48.7,29.85,NW,326,3.1,8.1,55,0.00,BKN,,0.00,WeatherDisplay:10.37,2013-04-07 21:02:00,
2013-04-07 17:07:00,65.2,48.1,29.85,NNE,22,3.2,3.5,54,0.00,BKN,,0.00,WeatherDisplay:10.37,2013-04-07 21:07:00,
2013-04-07 17:12:00,65.2,48.6,29.85,NW,326,3.8,4.0,55,0.00,BKN,,0.00,WeatherDisplay:10.37,2013-04-07 21:12:00,
2013-04-07 17:17:00,65.1,48.5,29.86,North,350,4.0,6.0,55,0.00,BKN,,0.00,WeatherDisplay:10.37,2013-04-07 21:17:00,
2013-04-07 17:22:00,64.9,47.9,29.86,NW,317,4.6,6.0,54,0.00,BKN,,0.00,WeatherDisplay:10.37,2013-04-07 21:22:00,
2013-04-07 17:27:00,64.5,47.5,29.86,North,350,6.1,9.2,54,0.00,BKN,,0.00,WeatherDisplay:10.37,2013-04-07 21:27:00,
2013-04-07 17:32:00,64.2,47.7,29.86,North,360,6.3,8.1,55,0.00,BKN,,0.00,WeatherDisplay:10.37,2013-04-07 21:32:00,
2013-04-07 17:37:00,64.0,47.5,29.86,North,355,2.8,6.0,55,0.00,BKN,,0.00,WeatherDisplay:10.37,2013-04-07 21:37:00,
2013-04-07 17:42:00,63.9,47.4,29.87,North,351,5.9,6.9,55,0.00,BKN,,0.00,WeatherDisplay:10.37,2013-04-07 21:42:00,
2013-04-07 17:47:00,63.7,47.7,29.87,NNW,346,3.5,7.0,56,0.00,BKN,,0.00,WeatherDisplay:10.37,2013-04-07 21:47:00,
2013-04-07 17:52:00,63.5,46.6,29.88,NNW,337,5.0,6.9,54,0.00,BKN,,0.00,WeatherDisplay:10.37,2013-04-07 21:52:00,
2013-04-07 17:57:00,63.2,47.2,29.88,NW,319,3.6,4.6,56,0.00,BKN,,0.00,WeatherDisplay:10.37,2013-04-07 21:57:00,
2013-04-07 18:02:00,62.8,46.9,29.88,NW,320,4.2,7.0,56,0.00,BKN,,0.00,WeatherDisplay:10.37,2013-04-07 22:02:00,
2013-04-07 18:08:00,62.4,46.5,29.88,North,355,3.9,8.1,56,0.00,BKN,,0.00,WeatherDisplay:10.37,2013-04-07 22:08:00,
2013-04-07 18:13:00,62.0,46.1,29.88,NNW,345,6.0,10.4,56,0.00,BKN,,0.00,WeatherDisplay:10.37,2013-04-07 22:13:00,
2013-04-07 18:18:00,61.6,45.7,29.89,NNW,340,4.9,4.9,56,0.00,BKN,,0.00,WeatherDisplay:10.37,2013-04-07 22:18:00,
2013-04-07 18:23:00,61.2,45.4,29.89,NNW,333,5.2,7.0,56,0.00,BKN,,0.00,WeatherDisplay:10.37,2013-04-07 22:23:00,
2013-04-07 18:28:00,60.9,45.6,29.89,NNW,339,3.5,5.8,57,0.00,BKN,,0.00,WeatherDisplay:10.37,2013-04-07 22:28:00,
2013-04-07 18:33:00,60.5,45.2,29.89,North,355,7.8,17.3,57,0.00,BKN,,0.00,WeatherDisplay:10.37,2013-04-07 22:33:00,
2013-04-07 18:38:00,60.1,45.3,29.89,NW,325,3.2,5.8,58,0.00,BKN,,0.00,WeatherDisplay:10.37,2013-04-07 22:38:00,
2013-04-07 18:43:00,59.7,44.9,29.90,NNW,342,4.6,8.1,58,0.00,BKN,,0.00,WeatherDisplay:10.37,2013-04-07 22:43:00,
2013-04-07 18:48:00,59.3,45.0,29.90,North,350,5.4,11.5,59,0.00,BKN,,0.00,WeatherDisplay:10.37,2013-04-07 22:48:00,
2013-04-07 18:53:00,58.7,44.4,29.90,NNW,327,4.2,8.1,59,0.00,BKN,,0.00,WeatherDisplay:10.37,2013-04-07 22:53:00,
2013-04-07 18:58:00,58.2,44.4,29.91,NNW,329,5.4,8.1,60,0.00,BKN,,0.00,WeatherDisplay:10.37,2013-04-07 22:58:00,
2013-04-07 19:03:00,57.8,44.9,29.91,NNW,335,4.1,5.0,62,0.00,BKN,,0.00,WeatherDisplay:10.37,2013-04-07 23:03:00,
2013-04-07 19:08:00,57.3,44.4,29.91,NW,304,5.6,8.1,62,0.00,BKN,,0.00,WeatherDisplay:10.37,2013-04-07 23:08:00,
2013-04-07 19:13:00,56.8,43.9,29.91,NNW,333,4.8,6.9,62,0.00,BKN,,0.00,WeatherDisplay:10.37,2013-04-07 23:13:00,
2013-04-07 19:18:00,56.3,43.4,29.92,NW,315,5.4,8.1,62,0.00,BKN,,0.00,WeatherDisplay:10.37,2013-04-07 23:18:00,
2013-04-07 19:23:00,55.9,43.5,29.92,NNW,331,4.3,6.9,63,0.00,BKN,,0.00,WeatherDisplay:10.37,2013-04-07 23:23:00,
2013-04-07 19:28:00,55.5,43.5,29.92,NNW,348,3.9,6.9,64,0.00,BKN,,0.00,WeatherDisplay:10.37,2013-04-07 23:28:00,
2013-04-07 19:33:00,55.1,43.1,29.92,NW,325,4.7,6.9,64,0.00,BKN,,0.00,WeatherDisplay:10.37,2013-04-07 23:33:00,
2013-04-07 19:38:00,54.6,43.1,29.92,North,5,1.5,3.5,65,0.00,BKN,,0.00,WeatherDisplay:10.37,2013-04-07 23:38:00,
2013-04-07 19:43:00,54.4,42.5,29.92,NNW,334,2.7,4.6,64,0.00,BKN,,0.00,WeatherDisplay:10.37,2013-04-07 23:43:00,
2013-04-07 19:48:00,54.2,42.7,29.92,NNW,347,3.4,5.8,65,0.00,BKN,,0.00,WeatherDisplay:10.37,2013-04-07 23:48:00,
2013-04-07 19:53:00,54.0,42.5,29.93,NNW,347,1.0,2.3,65,0.00,BKN,,0.00,WeatherDisplay:10.37,2013-04-07 23:53:00,
2013-04-07 19:58:00,53.8,42.3,29.93,NW,322,0.5,2.3,65,0.00,BKN,,0.00,WeatherDisplay:10.37,2013-04-07 23:58:00,
2013-04-07 20:03:00,53.5,42.0,29.93,NW,322,0.6,2.3,65,0.00,BKN,,0.00,WeatherDisplay:10.37,2013-04-08 00:03:00,
2013-04-07 20:08:00,53.2,42.1,29.93,NNW,327,1.0,2.3,66,0.00,BKN,,0.00,WeatherDisplay:10.37,2013-04-08 00:08:00,
2013-04-07 20:13:00,52.9,42.2,29.94,NNW,327,0.8,2.3,67,0.00,BKN,,0.00,WeatherDisplay:10.37,2013-04-08 00:13:00,
2013-04-07 20:18:00,52.5,42.2,29.94,NW,322,0.8,2.3,68,0.00,BKN,,0.00,WeatherDisplay:10.37,2013-04-08 00:18:00,
2013-04-07 20:23:00,52.2,42.0,29.94,NNW,329,1.6,4.0,68,0.00,BKN,,0.00,WeatherDisplay:10.37,2013-04-08 00:23:00,
2013-04-07 20:28:00,51.8,41.9,29.94,North,11,1.2,3.5,69,0.00,BKN,,0.00,WeatherDisplay:10.37,2013-04-08 00:28:00,
2013-04-07 20:33:00,51.4,41.6,29.94,North,360,2.4,3.5,69,0.00,BKN,,0.00,WeatherDisplay:10.37,2013-04-08 00:33:00,
2013-04-07 20:38:00,51.0,41.6,29.95,North,360,0.5,1.1,70,0.00,BKN,,0.00,WeatherDisplay:10.37,2013-04-08 00:38:00,
2013-04-07 20:43:00,50.7,41.3,29.95,NE,34,0.4,2.3,70,0.00,BKN,,0.00,WeatherDisplay:10.37,2013-04-08 00:43:00,
2013-04-07 20:48:00,50.4,41.0,29.96,North,350,1.6,4.6,70,0.00,BKN,,0.00,WeatherDisplay:10.37,2013-04-08 00:48:00,
2013-04-07 20:53:00,50.2,41.2,29.96,North,351,0.4,2.3,71,0.00,BKN,,0.00,WeatherDisplay:10.37,2013-04-08 00:53:00,
2013-04-07 20:58:00,49.9,41.2,29.96,North,349,1.8,3.5,72,0.00,BKN,,0.00,WeatherDisplay:10.37,2013-04-08 00:58:00,
2013-04-07 21:04:00,49.6,40.9,29.96,NNW,338,3.6,5.8,72,0.00,BKN,,0.00,WeatherDisplay:10.37,2013-04-08 01:04:00,
2013-04-07 21:09:00,49.4,40.7,29.96,NE,35,0.8,5.8,72,0.00,BKN,,0.00,WeatherDisplay:10.37,2013-04-08 01:09:00,
2013-04-07 21:14:00,49.2,40.6,29.96,NNE,31,2.9,4.6,72,0.00,BKN,,0.00,WeatherDisplay:10.37,2013-04-08 01:14:00,
2013-04-07 21:19:00,49.0,40.4,29.97,NNE,31,0.0,0.0,72,0.00,BKN,,0.00,WeatherDisplay:10.37,2013-04-08 01:19:00,
2013-04-07 21:24:00,48.8,40.2,29.97,NNE,32,1.2,2.3,72,0.00,BKN,,0.00,WeatherDisplay:10.37,2013-04-08 01:24:00,
2013-04-07 21:29:00,48.6,40.3,29.97,NNE,29,1.1,3.5,73,0.00,BKN,,0.00,WeatherDisplay:10.37,2013-04-08 01:29:00,
2013-04-07 21:34:00,48.4,40.1,29.97,NNE,29,0.2,1.0,73,0.00,BKN,,0.00,WeatherDisplay:10.37,2013-04-08 01:34:00,
2013-04-07 21:39:00,48.1,40.2,29.97,NNE,29,0.3,1.1,74,0.00,BKN,,0.00,WeatherDisplay:10.37,2013-04-08 01:39:00,
2013-04-07 21:45:00,47.8,39.9,29.97,NNE,29,0.0,0.0,74,0.00,BKN,,0.00,WeatherDisplay:10.37,2013-04-08 01:45:00,
2013-04-07 21:50:00,47.5,40.0,29.98,NE,47,0.3,2.3,75,0.00,BKN,,0.00,WeatherDisplay:10.37,2013-04-08 01:50:00,
2013-04-07 21:55:00,47.3,40.1,29.98,NE,46,0.5,3.5,76,0.00,BKN,,0.00,WeatherDisplay:10.37,2013-04-08 01:55:00,
2013-04-07 22:00:00,47.0,39.8,29.98,NE,46,0.0,0.0,76,0.00,BKN,,0.00,WeatherDisplay:10.37,2013-04-08 02:00:00,
2013-04-07 22:05:00,46.7,39.5,29.98,NE,46,0.0,0.0,76,0.00,BKN,,0.00,WeatherDisplay:10.37,2013-04-08 02:05:00,
2013-04-07 22:10:00,46.5,39.7,29.98,NE,46,1.0,3.0,77,0.00,BKN,BKN,0.00,WeatherDisplay:10.37,2013-04-08 02:10:00,
2013-04-07 22:15:00,46.4,39.6,29.98,NE,46,0.0,3.0,77,0.00,BKN,BKN,0.00,WeatherDisplay:10.37,2013-04-08 02:15:00,
2013-04-07 22:20:00,46.2,39.4,29.98,NE,44,0.0,0.0,77,0.00,BKN,,0.00,WeatherDisplay:10.37,2013-04-08 02:20:00,
2013-04-07 22:25:00,46.1,39.3,29.98,NE,44,0.0,1.0,77,0.00,BKN,,0.00,WeatherDisplay:10.37,2013-04-08 02:25:00,
2013-04-07 22:30:00,45.9,39.1,29.99,NE,44,0.1,0.0,77,0.00,BKN,,0.00,WeatherDisplay:10.37,2013-04-08 02:30:00,
2013-04-07 22:35:00,45.7,38.9,29.99,NE,44,0.0,0.0,77,0.00,BKN,BKN,0.00,WeatherDisplay:10.37,2013-04-08 02:35:00,
2013-04-07 22:40:00,45.6,38.8,29.99,NE,44,0.0,0.0,77,0.00,BKN,,0.00,WeatherDisplay:10.37,2013-04-08 02:40:00,
2013-04-07 22:45:00,45.4,38.9,29.99,NE,44,0.0,0.0,78,0.00,BKN,,0.00,WeatherDisplay:10.37,2013-04-08 02:45:00,
2013-04-07 22:51:00,45.2,38.7,29.99,NE,44,0.0,0.0,78,0.00,BKN,,0.00,WeatherDisplay:10.37,2013-04-08 02:51:00,
2013-04-07 22:56:00,45.0,38.6,29.99,NE,44,0.1,2.3,78,0.00,BKN,,0.00,WeatherDisplay:10.37,2013-04-08 02:56:00,
2013-04-07 23:02:00,44.7,38.6,29.99,NE,44,0.1,1.1,79,0.00,OVC,,0.00,WeatherDisplay:10.37,2013-04-08 03:02:00,
2013-04-07 23:07:00,44.5,38.7,29.99,NE,44,0.1,0.0,80,0.00,OVC,,0.00,WeatherDisplay:10.37,2013-04-08 03:07:00,
2013-04-07 23:12:00,44.3,38.5,29.99,NE,42,0.0,2.3,80,0.00,OVC,,0.00,WeatherDisplay:10.37,2013-04-08 03:12:00,
2013-04-07 23:17:00,44.1,38.6,29.99,NE,42,0.0,1.1,81,0.00,OVC,,0.00,WeatherDisplay:10.37,2013-04-08 03:17:00,
2013-04-07 23:22:00,44.0,38.5,29.99,NE,42,0.2,1.1,81,0.00,OVC,,0.00,WeatherDisplay:10.37,2013-04-08 03:22:00,
2013-04-07 23:27:00,43.8,38.7,29.99,NE,42,0.0,0.0,82,0.00,OVC,,0.00,WeatherDisplay:10.37,2013-04-08 03:27:00,
2013-04-07 23:32:00,43.7,38.6,29.99,NE,42,0.0,0.0,82,0.00,OVC,,0.00,WeatherDisplay:10.37,2013-04-08 03:32:00,
2013-04-07 23:37:00,43.6,38.5,29.99,NE,42,0.0,0.0,82,0.00,OVC,,0.00,WeatherDisplay:10.37,2013-04-08 03:37:00,
2013-04-07 23:43:00,43.5,38.4,29.99,ENE,63,1.1,4.6,82,0.00,OVC,,0.00,WeatherDisplay:10.37,2013-04-08 03:43:00,
2013-04-07 23:48:00,43.5,38.4,29.99,ENE,62,0.0,0.0,82,0.00,OVC,,0.00,WeatherDisplay:10.37,2013-04-08 03:48:00,
2013-04-07 23:53:00,43.3,38.2,29.99,ENE,62,0.0,0.0,82,0.00,OVC,,0.00,WeatherDisplay:10.37,2013-04-08 03:53:00,
2013-04-07 23:58:00,43.2,38.1,30.00,ENE,62,0.0,0.0,82,0.00,OVC,,0.00,WeatherDisplay:10.37,2013-04-08 03:58:00,